Home   Weather   Cheltenham   Past weeks

Flag for United Kingdom Past Weather in Cheltenham, England, United Kingdom — Yesterday and Last 2 Weeks

Now
79 °F

Sunny.


Feels Like: 80 °F
Forecast: 55 / 76 °F
Wind: 8 mph from Southeast

Location: Staverton Private

Current Time: May 25, 2017 at 7:21:56 pm

Latest Report: May 25, 2017 at 6:50 pm


Visibility: 10 mi

Pressure: 30.12 "Hg

Humidity: 48%

Dew Point: 57 °F

Location of CheltenhamLocation

Past Weather in Cheltenham — Graph

°F

Cheltenham Temperature Yesterday

Maximum temperature yesterday: 77 °F (at 3:20 pm)
Minimum temperature yesterday: 59 °F (at 8:20 am)
Average temperature yesterday: 72 °F

High & Low Weather Summary for the Past Weeks

 TemperatureHumidityPressure
High81 °F (May 25, 3:20 pm)94% (May 12, 7:50 am)30.33 "Hg (May 12, 7:50 am)
Low48 °F (May 19, 8:20 am)37% (May 10, 6:50 pm)29.33 "Hg (May 11, 3:20 pm)
Average63 °F67%29.96 "Hg
* Reported May 10 6:20 pm — May 25 6:20 pm, Cheltenham. Weather by CustomWeather, © 2017

Note: Actual official high and low records may vary slightly from our data, if they occured in-between our weather recording intervals... More about our weather records

Advertising

Cheltenham Weather History for the Previous 24 Hours

Scroll right to see more
 ConditionsComfort  
Time TempWeatherWind HumidityBarometerVisibility
6:20 pm
Thu, May 25
79 °FPassing clouds.8 mph45%30.12 "HgN/A
5:50 pm79 °FSunny.7 mph48%30.12 "Hg10 mi
5:20 pm79 °FPassing clouds.8 mph48%30.15 "HgN/A
4:50 pm79 °FSunny.8 mph48%30.15 "Hg10 mi
4:20 pm81 °FPassing clouds.7 mph45%30.15 "HgN/A
3:50 pm81 °FPassing clouds.7 mph42%30.15 "HgN/A
3:20 pm81 °FSunny.7 mph45%30.18 "Hg10 mi
2:50 pm77 °FScattered clouds.6 mph51%30.18 "HgN/A
2:20 pm79 °FScattered clouds.7 mph48%30.18 "HgN/A
1:50 pm77 °FScattered clouds.6 mph51%30.18 "HgN/A
1:20 pm79 °FScattered clouds.7 mph48%30.18 "HgN/A
12:50 pm77 °FScattered clouds.7 mph54%30.21 "HgN/A
12:20 pm77 °FScattered clouds.6 mph54%30.21 "HgN/A
11:50 am77 °FScattered clouds.7 mph57%30.21 "HgN/A
11:20 am75 °FPassing clouds.6 mph54%30.24 "HgN/A
10:50 am75 °FPassing clouds.3 mph54%30.24 "HgN/A
10:20 am73 °FPassing clouds.No wind69%30.24 "HgN/A
9:50 am72 °FPassing clouds.No wind73%30.24 "HgN/A
9:20 am70 °FSunny.No wind73%30.24 "Hg10 mi
8:50 am70 °FSunny.No wind73%30.24 "Hg10 mi
8:20 am68 °FSunny.No wind73%30.24 "Hg10 mi
7:50 am64 °FSunny.No wind83%30.24 "Hg10 mi
7:20 pm
Wed, May 24
77 °FSunny.2 mph47%30.24 "Hg10 mi
Weather by CustomWeather, © 2017

See weather overviewHow to use our weather pages